Tracking 19246 objects as of 20-Aug-2018
HD Live streaming from Space Station
objects crossing your sky now

SL-18 R/B

Track SL-18 R/B now!
10-day predictions


NORAD ID: 26703
Int'l Code: 2001-007B
Perigee: 582.1 km
Apogee: 587.8 km
Inclination: 97.7 °
Period: 96.2 minutes
Semi major axis: 6955 km
RCS: 2.4311 m2 (large)
Launch date: February 20, 2001
Source: Commonwealth of Independent States (former USSR) (CIS)
Launch site: Svobodny, Russia (SVOB)

Pakistan's microsatellite for development of surveillance capability.
Note: This is a ROCKET BODY
aabbcc
Your satellite tracking list
Your tracking list is empty




NASA's NSSDC Master Catalog

Two Line Element Set (TLE):
1 26703U 01007B   18232.49860924  .00000319  00000-0  33165-4 0  9999
2 26703  97.7100 242.1595 0004080 155.4888 204.6528 14.96459367952673
Source of the keplerian elements: AFSPC